Location: ??
(35.4627°N, 139.3695°E)
Time: 05:10:39
(UTC+00:00)

Cosmos 2228 Rocket - Pass Details

Date: 25 November 2020
Orbit: 618 x 652 km, 82.5° (Epoch: 20 January)

Event Time Altitude Azimuth Distance (km) Brightness Sun altitude
Rises 20:32:03 0° 1° (N) 2,916 6.3 -11.5°
Reaches altitude 10° 20:34:24 10° 9° (N) 2,001 5.6 -11.1°
Maximum altitude 20:38:36 41° 80° (E) 904 4.5 -10.3°
Drops below altitude 10° 20:42:44 10° 151° (SSE) 1,976 6.4 -9.5°
Sets 20:45:02 0° 158° (SSE) 2,876 7.1 -9.0°
